[[{"header":{"parameterUnit":"m.s-1","parameterCategory":1,"la1":30.2991,"la2":30.254,"lo1":-89.0895,"lo2":-89.0444,"dy":0.0017,"dx":0.0017,"nx":28,"ny":28,"refTime":"2024-04-24T21:00:00:Z","depth":0,"parameterNumber":2,"parameterNumberName":"U-component_of_WINDS"},"data":[0,0,0,0,0,0,0,0,0,0,0,0,0,0,0,0,0,0,0,0,0,0,0,0,0,0,0,0,0,0,0,0,0,0,0,0,0,0,0,0,0,0,0,0,0,0,0,0,0,0,0,0,0,0,0,0,0,0,0.1698,0.1699,0,0.1726,0.1726,0.1726,0.175,0.175,0.175,0.1751,0.1778,0.1778,0.1779,0,0,0,0,0,0,0,0,0,0,0,0,0,0.1666,0.1666,0.1698,0.1699,0.1699,0.1725,0.1726,0.1726,0.175,0.175,0.1751,0.1751,0.1778,0.1778,0.1779,0,0,0,0,0,0,0,0,0,0,0,0,0,0.1685,0.1667,0.1698,0.1714,0.1716,0.1725,0.1726,0.1726,0.175,0.175,0.1751,0.1751,0.1778,0.1778,0.1779,0.1775,0,0,0.1781,0.1781,0,0,0,0,0,0,0,0,0.1684,0.1686,0.1711,0.1713,0.1715,0.1735,0.1724,0.1743,0.175,0.1737,0.1751,0.1751,0.1763,0.1765,0.1769,0.1776,0.1777,0.1781,0.1782,0.1782,0.1782,0,0,0,0,0,0,0,0.1683,0.1685,0.1709,0.1712,0.1714,0.1719,0.1723,0.1728,0.1747,0.1738,0.174,0.1743,0.1764,0.1769,0.177,0.1778,0.1781,0.1782,0.1782,0.1782,0.1784,0.1783,0,0,0,0,0,0,0.1679,0.1684,0.1708,0.171,0.17,0.172,0.1723,0.1728,0.1747,0.1751,0.1742,0.1744,0.1767,0.1769,0.1771,0.1768,0.1782,0.1783,0.1783,0.1784,0.1784,0.1783,0,0,0,0,0,0,0.1678,0.1681,0.1707,0.1697,0.1701,0.172,0.1725,0.1728,0.1733,0.1751,0.1754,0.1743,0.1768,0.177,0.1774,0.177,0.1783,0.1783,0.1785,0.1784,0.1783,0.1762,0,0,0,0,0,0,0.1677,0.1681,0.1679,0.1697,0.1702,0.171,0.1725,0.1728,0.1734,0.1736,0.1752,0.1756,0.1768,0.1773,0.1775,0.1771,0.1784,0.1785,0.1784,0.1784,0.1764,0.1761,0.1759,0,0,0,0,0,0.1676,0.1672,0.1679,0.1682,0.1701,0.1709,0.1712,0.1727,0.1733,0.1732,0.1744,0.1755,0.177,0.1773,0.1775,0.1772,0.1785,0.1784,0.1784,0.1765,0.1762,0.1759,0,0,0,0,0,0,0.1653,0.1675,0.1683,0.1685,0.1695,0.1713,0.1712,0.1723,0.1731,0.1733,0.175,0.1754,0.1756,0.1764,0.1768,0.1769,0.1779,0.1779,0.1764,0.1761,0.1759,0.1757,0.1785,0,0,0,0,0,0.1648,0.1654,0.1672,0.1672,0.1677,0.1694,0.1698,0.1708,0.172,0.1724,0.1736,0.1746,0.1753,0.1758,0.1765,0.1765,0.1769,0.1763,0.1761,0.1759,0.1759,0.176,0.1758,0.178,0.178,0.178,0,0,0.1638,0.1651,0.1653,0.1668,0.1677,0.1682,0.1697,0.1702,0.1706,0.1725,0.173,0.1739,0.1751,0.1753,0.1755,0.176,0.1753,0.1758,0.1756,0.1757,0.1759,0.1756,0.1754,0.178,0.178,0.178,0,0,0.1623,0.1632,0.1634,0.1643,0.1657,0.1668,0.1668,0.1685,0.1692,0.1697,0.1711,0.1716,0.1728,0.1737,0.1742,0.173,0.1741,0.1732,0.1721,0.1722,0.172,0.1718,0.1715,0.1713,0.1732,0.1732,0.1732,0,0.1608,0.1617,0.1633,0.1637,0.1643,0.1661,0.1662,0.167,0.1685,0.1689,0.1695,0.171,0.172,0.1725,0.1722,0.1726,0.1727,0.1731,0.1719,0.1717,0.1716,0.1713,0.1711,0.1731,0.1731,0.1731,0.1731,0,0.1599,0.1605,0.1604,0.1619,0.1625,0.1628,0.1644,0.1648,0.1658,0.1668,0.1674,0.1686,0.1696,0.1698,0.1708,0.1704,0.1707,0.1715,0.1726,0.1713,0.171,0.1709,0.1729,0.1729,0.173,0.173,0,0,0.157,0.1594,0.1593,0.1601,0.1617,0.1622,0.1626,0.1636,0.164,0.1649,0.1653,0.1663,0.1671,0.1677,0.1688,0.1689,0.1679,0.1697,0.1698,0.1694,0.1676,0.167,0.1668,0.1686,0.1686,0.1686,0.1676,0,0.1558,0.1565,0.158,0.1583,0.1589,0.1605,0.1608,0.1619,0.1629,0.1635,0.1646,0.1653,0.1663,0.1667,0.1668,0.168,0.1676,0.1681,0.169,0.169,0.1686,0.1667,0.166,0.165,0.1674,0.1674,0.1674,0,0.1544,0.1554,0.1558,0.1574,0.1577,0.158,0.1591,0.1597,0.1609,0.1616,0.1624,0.1635,0.164,0.1649,0.1656,0.1659,0.1663,0.167,0.167,0.1671,0.1681,0.1669,0.1647,0.1646,0.1672,0.1673,0.1673,0,0.1523,0.1537,0.1541,0.1547,0.1566,0.1568,0.1576,0.1589,0.1594,0.1604,0.1608,0.1617,0.1623,0.163,0.1644,0.1649,0.1649,0.166,0.1656,0.1655,0.1655,0.1655,0.1635,0.1657,0.1657,0.1657,0.1657,0,0.1509,0.151,0.1532,0.1535,0.1537,0.1554,0.1556,0.1565,0.1577,0.1581,0.1596,0.16,0.1618,0.1624,0.1635,0.164,0.1642,0.1648,0.1651,0.1647,0.1646,0.165,0.1652,0.1657,0.1657,0.1657,0.1657,0,0.1486,0.1501,0.1506,0.1524,0.1529,0.153,0.1546,0.1549,0.156,0.1565,0.1568,0.1585,0.1593,0.1607,0.162,0.1627,0.1629,0.1634,0.1625,0.1627,0.1622,0.1623,0.1604,0.1603,0.1626,0.1625,0.1625,0,0.1476,0.1477,0.1496,0.15,0.1508,0.1515,0.1521,0.1537,0.1542,0.1557,0.1558,0.1567,0.1576,0.1588,0.1601,0.1611,0.1616,0.1609,0.1618,0.1614,0.1617,0.1617,0.1617,0.1607,0.1607,0.1607,0.1606,0,0.1456,0.1463,0.1471,0.1482,0.1489,0.1498,0.1508,0.151,0.1529,0.1534,0.1543,0.1549,0.1562,0.1571,0.1582,0.1591,0.1602,0.1603,0.1603,0.1599,0.1594,0.1597,0.162,0.1604,0.1604,0.1604,0.1604,0.1605,0.144,0.1442,0.1456,0.1464,0.1473,0.1482,0.1486,0.1498,0.1505,0.1517,0.1526,0.1534,0.1547,0.1563,0.1571,0.1577,0.1582,0.1582,0.1582,0.1581,0.158,0.1593,0.1579,0.158,0.158,0.158,0.158,0,0.1421,0.1431,0.1439,0.1452,0.1459,0.1469,0.148,0.1485,0.1492,0.1503,0.1511,0.1521,0.153,0.1544,0.1554,0.1557,0.1562,0.1559,0.1559,0.1561,0.1575,0.1574,0.1554,0.1554,0.1554,0.1554,0.1554,0.1554,0.1413,0.1418,0.1427,0.1436,0.1446,0.1454,0.146,0.1468,0.1477,0.1487,0.1495,0.1504,0.1517,0.1528,0.1537,0.1541,0.1544,0.1539,0.1545,0.1557,0.156,0.1562,0.1562,0.154,0.1539,0.153,0.153,0.153]},{"header":{"parameterUnit":"m.s-1","parameterCategory":1,"la1":30.2991,"la2":30.254,"lo1":-89.0895,"lo2":-89.0444,"dy":0.0017,"dx":0.0017,"nx":28,"ny":28,"refTime":"2024-04-24T21:00:00:Z","depth":0,"parameterNumber":3,"parameterNumberName":"V-component_of_WINDS"},"data":[0,0,0,0,0,0,0,0,0,0,0,0,0,0,0,0,0,0,0,0,0,0,0,0,0,0,0,0,0,0,0,0,0,0,0,0,0,0,0,0,0,0,0,0,0,0,0,0,0,0,0,0,0,0,0,0,0,0,-0.131,-0.1311,0,-0.1366,-0.1367,-0.1368,-0.1386,-0.1386,-0.1386,-0.1386,-0.1442,-0.1443,-0.1445,0,0,0,0,0,0,0,0,0,0,0,0,0,-0.1217,-0.1219,-0.131,-0.1311,-0.1312,-0.1366,-0.1367,-0.1368,-0.1386,-0.1386,-0.1386,-0.1386,-0.1441,-0.1443,-0.1445,0,0,0,0,0,0,0,0,0,0,0,0,0,-0.1264,-0.122,-0.131,-0.1328,-0.133,-0.1366,-0.1367,-0.1368,-0.1387,-0.1386,-0.1386,-0.1386,-0.1441,-0.1443,-0.1446,-0.1468,0,0,-0.1453,-0.1454,0,0,0,0,0,0,0,0,-0.1261,-0.1267,-0.1324,-0.1326,-0.1329,-0.1369,-0.1355,-0.1402,-0.1387,-0.1365,-0.1386,-0.1385,-0.1418,-0.1422,-0.1433,-0.1471,-0.1473,-0.1454,-0.1455,-0.1456,-0.1457,0,0,0,0,0,0,0,-0.1258,-0.1265,-0.1332,-0.1325,-0.1328,-0.1332,-0.1338,-0.1364,-0.1393,-0.1367,-0.1368,-0.1375,-0.1419,-0.1431,-0.1435,-0.1474,-0.1454,-0.1456,-0.1457,-0.1458,-0.1532,-0.1533,0,0,0,0,0,0,-0.1252,-0.1262,-0.1331,-0.1334,-0.1294,-0.1334,-0.1341,-0.1357,-0.1392,-0.1397,-0.1375,-0.1375,-0.1427,-0.1432,-0.1437,-0.1466,-0.1456,-0.1459,-0.146,-0.1532,-0.1532,-0.1533,0,0,0,0,0,0,-0.125,-0.1258,-0.1328,-0.1299,-0.1308,-0.1336,-0.1353,-0.1358,-0.137,-0.1399,-0.1404,-0.1382,-0.1427,-0.1433,-0.146,-0.1468,-0.146,-0.1462,-0.1531,-0.1532,-0.1533,-0.1523,0,0,0,0,0,0,-0.1247,-0.1257,-0.1267,-0.1299,-0.1309,-0.1351,-0.1354,-0.1359,-0.1374,-0.1375,-0.1407,-0.1411,-0.1427,-0.1456,-0.1463,-0.1471,-0.1464,-0.1531,-0.1532,-0.1532,-0.1523,-0.1524,-0.1524,0,0,0,0,0,-0.1244,-0.1262,-0.1267,-0.1275,-0.1322,-0.1352,-0.1358,-0.1376,-0.1375,-0.1384,-0.1403,-0.141,-0.1466,-0.1459,-0.1466,-0.1476,-0.153,-0.1531,-0.1532,-0.1523,-0.1524,-0.1524,0,0,0,0,0,0,-0.1229,-0.1266,-0.1273,-0.1301,-0.1323,-0.1355,-0.1367,-0.1376,-0.1398,-0.1398,-0.1419,-0.1426,-0.1451,-0.1466,-0.1458,-0.1499,-0.1499,-0.1501,-0.1489,-0.149,-0.149,-0.1486,-0.1466,0,0,0,0,0,-0.123,-0.1251,-0.1282,-0.1304,-0.1315,-0.1339,-0.1353,-0.1365,-0.1388,-0.1398,-0.1418,-0.144,-0.1462,-0.1477,-0.1499,-0.1525,-0.1532,-0.1535,-0.1536,-0.1536,-0.1538,-0.1552,-0.1554,-0.1536,-0.1536,-0.1536,0,0,-0.123,-0.1253,-0.1265,-0.1302,-0.1321,-0.1342,-0.1347,-0.137,-0.1386,-0.1401,-0.1428,-0.1443,-0.1469,-0.1496,-0.1509,-0.1509,-0.1544,-0.1537,-0.1537,-0.1539,-0.1553,-0.1555,-0.1557,-0.1537,-0.1537,-0.1537,0,0,-0.1242,-0.1262,-0.1282,-0.1301,-0.1329,-0.1345,-0.1349,-0.138,-0.1391,-0.1418,-0.143,-0.1449,-0.1487,-0.1505,-0.1519,-0.1537,-0.1545,-0.1543,-0.1546,-0.156,-0.1561,-0.1562,-0.1569,-0.1571,-0.1545,-0.1545,-0.1545,0,-0.1239,-0.1273,-0.1292,-0.1314,-0.1329,-0.1344,-0.1365,-0.1382,-0.1415,-0.1425,-0.1425,-0.1473,-0.1492,-0.1523,-0.1527,-0.1538,-0.1544,-0.154,-0.1559,-0.1561,-0.1563,-0.1569,-0.1571,-0.1545,-0.1545,-0.1545,-0.1545,0,-0.1267,-0.129,-0.1303,-0.1336,-0.1353,-0.1374,-0.1396,-0.141,-0.142,-0.1436,-0.1463,-0.1486,-0.1513,-0.1521,-0.1531,-0.1553,-0.1552,-0.1555,-0.1555,-0.1564,-0.157,-0.1572,-0.1544,-0.1544,-0.1544,-0.1545,0,0,-0.1272,-0.1315,-0.1319,-0.1334,-0.1366,-0.1384,-0.1405,-0.1432,-0.1444,-0.1466,-0.1484,-0.1516,-0.1519,-0.1535,-0.1547,-0.1559,-0.1571,-0.1561,-0.1562,-0.1562,-0.1597,-0.1594,-0.1596,-0.1577,-0.1577,-0.1577,-0.1594,0,-0.1288,-0.1328,-0.1346,-0.1377,-0.1399,-0.1413,-0.1431,-0.1452,-0.1467,-0.1487,-0.1503,-0.1525,-0.1527,-0.1537,-0.155,-0.1567,-0.1579,-0.1566,-0.1593,-0.1594,-0.1587,-0.16,-0.1597,-0.1612,-0.1597,-0.1597,-0.1598,0,-0.1313,-0.1336,-0.137,-0.1398,-0.1408,-0.1424,-0.145,-0.1469,-0.1492,-0.1502,-0.152,-0.1531,-0.1553,-0.1551,-0.1582,-0.1573,-0.1585,-0.1595,-0.1596,-0.1599,-0.1596,-0.1603,-0.1617,-0.162,-0.1602,-0.1601,-0.1601,0,-0.1313,-0.1352,-0.1378,-0.139,-0.1424,-0.1435,-0.145,-0.1473,-0.1488,-0.151,-0.1519,-0.1543,-0.1557,-0.1575,-0.1592,-0.1589,-0.162,-0.162,-0.1629,-0.1628,-0.1635,-0.1635,-0.1651,-0.1643,-0.1643,-0.1643,-0.1643,0,-0.1329,-0.135,-0.1378,-0.1394,-0.1416,-0.1435,-0.1457,-0.1473,-0.1493,-0.1512,-0.1525,-0.1541,-0.1563,-0.1582,-0.1596,-0.1619,-0.1624,-0.1633,-0.1636,-0.1632,-0.1631,-0.164,-0.1639,-0.1643,-0.1643,-0.1643,-0.1643,0,-0.1334,-0.1354,-0.1382,-0.1412,-0.142,-0.1435,-0.1461,-0.1476,-0.1491,-0.1514,-0.152,-0.1544,-0.1567,-0.1586,-0.1616,-0.1625,-0.1649,-0.1653,-0.1642,-0.1643,-0.1651,-0.165,-0.1675,-0.1679,-0.1667,-0.1667,-0.1667,0,-0.1343,-0.1359,-0.139,-0.1404,-0.1419,-0.144,-0.1455,-0.1474,-0.1489,-0.1517,-0.1529,-0.1553,-0.1574,-0.161,-0.1629,-0.1652,-0.1657,-0.1664,-0.166,-0.1655,-0.1657,-0.1656,-0.1657,-0.1664,-0.1664,-0.1664,-0.1664,0,-0.1357,-0.1366,-0.1388,-0.1413,-0.1431,-0.1451,-0.1472,-0.1482,-0.1504,-0.152,-0.1545,-0.156,-0.1591,-0.1615,-0.164,-0.1654,-0.1663,-0.1665,-0.1668,-0.1664,-0.1657,-0.1661,-0.1643,-0.1664,-0.1664,-0.1664,-0.1664,-0.1664,-0.1364,-0.1379,-0.1403,-0.1427,-0.1445,-0.1463,-0.1479,-0.1496,-0.1517,-0.1544,-0.1554,-0.1578,-0.1601,-0.1635,-0.165,-0.1669,-0.1669,-0.1674,-0.1675,-0.1676,-0.1676,-0.1653,-0.1673,-0.1673,-0.1673,-0.1673,-0.1673,0,-0.1379,-0.1396,-0.1417,-0.1446,-0.1464,-0.1471,-0.1494,-0.1508,-0.153,-0.1551,-0.157,-0.1598,-0.1621,-0.1642,-0.1665,-0.1676,-0.1681,-0.1682,-0.1681,-0.1684,-0.1674,-0.1669,-0.1678,-0.1678,-0.1678,-0.1678,-0.1678,-0.1678,-0.1389,-0.1414,-0.1426,-0.1459,-0.1476,-0.15,-0.1513,-0.153,-0.1546,-0.1577,-0.1596,-0.1609,-0.163,-0.1655,-0.1676,-0.1682,-0.169,-0.169,-0.1696,-0.1686,-0.1685,-0.1685,-0.168,-0.1691,-0.1691,-0.1705,-0.1705,-0.1706]}]]